Regional Weather Roundup
Issued by NWS

Home | Current Version | Previous Version | Graphics & Text | Print | Product List | Glossary On
Versions: 1 2 3 4 5 6 7 8 9 10 11 12 13 14 15 16 17 18 19 20 21 22 23 24 25 26 27 28 29 30 31 32 33 34 35 36 37 38 39 40 41 42 43 44 45 46 47 48 49 50
589
ASUS43 KLSX 230607
RWRMO

WEATHER SUMMARY FOR MISSOURI
NATIONAL WEATHER SERVICE SPRINGFIELD MO
1200 AM CST THU NOV 23 2017

NOTE: "FAIR" INDICATES FEW OR NO CLOUDS BELOW 12,000 FEET WITH NO
       SIGNIFICANT WEATHER AND/OR OBSTRUCTIONS TO VISIBILITY.
       CURRENT SKY AND/OR WEATHER CONDITIONS ARE NOT AVAILABLE FOR
       CHILLICOTHE AND FARMINGTON.

MOZ001>031-035>038-043-044-053-054-230700-
...NORTHERN AND WESTERN MISSOURI...

CITY           SKY/WX    TMP DP  RH WIND       PRES   REMARKS
KANSAS CTY INT CLEAR     37  20  50 SW10      30.12S WCI  30
6HR MIN TEMP:  30; 6HR MAX TEMP:  38;

KANSAS C DTWN  CLEAR     37  20  50 SW6       30.13F
6HR MIN TEMP:  36; 6HR MAX TEMP:  42;

LEE`S SUMMIT   CLOUDY    37  20  50 SW13      30.14F WCI  29
6HR MIN TEMP:  34; 6HR MAX TEMP:  38;

ST JOSEPH      CLEAR     35  20  54 S8        30.11F WCI  29
6HR MIN TEMP:  32; 6HR MAX TEMP:  36;

CHILLICOTHE      N/A     33  19  56 S7        30.14F WCI  27
6HR MIN TEMP:  32; 6HR MAX TEMP:  35;

KIRKSVILLE     CLEAR     30  18  60 S6        30.15F WCI  24
6HR MIN TEMP:  30; 6HR MAX TEMP:  34;


$$
MOZ066>068-077>081-088>096-101>105-230700-
...SOUTHWEST MISSOURI...

CITY           SKY/WX    TMP DP  RH WIND       PRES   REMARKS
SPRINGFIELD    CLOUDY    31  23  72 S6        30.19F WCI  25
6HR MIN TEMP:  26; 6HR MAX TEMP:  36;

JOPLIN         CLOUDY    32  23  69 S6        30.21F WCI  26
6HR MIN TEMP:  30; 6HR MAX TEMP:  38;

BRANSON        CLOUDY    34  16  47 CALM      30.21F

$$
MOZ032>034-039>042-045>050-055>058-069>072-230700-
...CENTRAL MISSOURI...

CITY           SKY/WX    TMP DP  RH WIND       PRES   REMARKS
COLUMBIA       CLEAR     30  18  60 S8        30.18F WCI  22
6HR MIN TEMP:  28; 6HR MAX TEMP:  36;

JEFFERSON CITY CLEAR     29  20  69 CALM      30.21F
6HR MIN TEMP:  28; 6HR MAX TEMP:  36;

ROLLA          CLEAR     29  17  61 S7        30.19F WCI  22
6HR MIN TEMP:  28; 6HR MAX TEMP:  33;

SEDALIA        PTCLDY    32  24  72 S7        30.18F WCI  26
6HR MIN TEMP:  31; 6HR MAX TEMP:  38;

WHITEMAN AFB   MOCLDY    32  20  63 S6        30.13F WCI  26
WARRENSBURG    CLOUDY    32  21  64 S5        30.17F WCI  27
OSAGE BEACH    PTCLDY    28  20  71 CALM      30.21F

$$
MOZ051-052-059>065-230700-
...EAST CENTRAL MISSOURI...

CITY           SKY/WX    TMP DP  RH WIND       PRES   REMARKS
ST LOUIS INTL  CLOUDY    35  20  54 S7        30.23S WCI  29
6HR MIN TEMP:  33; 6HR MAX TEMP:  37;

SPIRIT OF STL  CLOUDY    35  19  52 S6        30.21F
6HR MIN TEMP:  30; 6HR MAX TEMP:  36;

ST CHARLES     CLOUDY    33  22  63 S5        30.22F WCI  29
6HR MIN TEMP:  31; 6HR MAX TEMP:  35;


$$
MOZ072>076-082>087-097>100-106>115-230700-
...SOUTH CENTRAL AND SOUTHEAST MISSOURI...

CITY           SKY/WX    TMP DP  RH WIND       PRES   REMARKS
CAPE GIRARDEAU PTCLDY    25  21  85 CALM      30.24F
6HR MIN TEMP:  24; 6HR MAX TEMP:  35;

FARMINGTON     CLEAR     27  20  75 CALM      30.22F
6HR MIN TEMP:  26; 6HR MAX TEMP:  32;

POPLAR BLUFF   PTCLDY    28  23  81 CALM      30.24F
6HR MIN TEMP:  26; 6HR MAX TEMP:  35;

WEST PLAINS    MOCLDY    30  19  63 CALM      30.21F
6HR MIN TEMP:  28; 6HR MAX TEMP:  37;


$$



USA.gov is the U.S. government's official web portal to all federal, state and local government web resources and services.